Location: PSU-Greenbush Astrophysical Observatory
(37.5140°N, 94.9880°W)
Time: 14:37:29
(UTC-06:00)

deb Explorer IX - Pass Details

Date: 27 January 2020
Orbit: 549 x 1099 km, 38.8° (Epoch: 21 February)

Event Time Altitude Azimuth Distance (km) Brightness Sun altitude
Rises 02:52:43 0° 285° (WNW) 3,907 - -54.0°
Reaches altitude 10° 02:55:43 10° 278° (W) 2,935 - -53.5°
Maximum altitude 03:02:17 38° 213° (SSW) 1,528 - -52.3°
Drops below altitude 10° 03:08:21 10° 147° (SSE) 2,704 - -51.1°
Sets 03:11:01 0° 139° (SE) 3,570 - -50.6°
